Volver al catálogo

ZHUHAI-1 03D

ActivoCienciaPO
NORAD 44538·PAYLOAD·🇨🇳 China

Lanzado Sep 19, 2019 desde Jiuquan Satellite Launch Center

Loading…

Próximos Pases (próximas 24 horas)

TLE

ActualizadoSource: Space-Track

Época: Sep 14, 2026, 21:20 UTC

1 44538U 19060E   26257.88924003  .00036637  00000-0  54552-3 0  9995
2 44538  97.5475  52.2339 0005922 334.2684  25.8274 15.55023246389994

Sigue ZHUHAI-1 03D en tiempo real con AllMySat

Download on the App Store